Las Vegas, NV

7:21 AM PDT on March 29, 2017 (GMT -0700)
McCarran International

Weather History for KLAS - March, 2014

Change the Weather History Date:

Tuesday, March 11, 2014

  Actual Average Record
Temperature  
Mean Temperature 61 °F 59 °F  
Max Temperature 67 °F 69 °F 86 °F (1989)
Min Temperature 54 °F 49 °F 26 °F (1948)
Degree Days  
Heating Degree Days 4 7  
Month to date heating degree days 38 85  
Since 1 July heating degree days 1424 1776  
Cooling Degree Days 0 1  
Month to date cooling degree days 3 3  
Year to date cooling degree days 6 4  
Growing Degree Days 12 (Base 50)    
Moisture  
Dew Point 11 °F    
Average Humidity 16    
Maximum Humidity 24    
Minimum Humidity 7    
Precipitation  
Precipitation 0.00 in 0.02 in 0.57 in (1965)
Month to date precipitation 0.00 0.22  
Year to date precipitation 0.30 1.52  
Snow  
Snow 0.00 in 0.00 in 0.00 in (2015)
Month to date snowfall 0.0 0.0  
Since 1 July snowfall 0.0 0.3  
Snow Depth 0.00 in    
Sea Level Pressure  
Sea Level Pressure 30.04 in    
Wind  
Wind Speed 12 mph (North)    
Max Wind Speed 28 mph    
Max Gust Speed 38 mph    
Visibility 10 miles    
Events      
T = Trace of Precipitation, MM = Missing Value Source: NWS Daily Summary

Daily Weather History Graph

Daily Weather History Graph

Search for Another Location

Airport or City:

Trip Planner

Search our weather history database for the weather conditions in past years. The results will help you decide how hot, cold, wet, or windy it might be!

Date:

Astronomy

Mar. 11, 2014 Rise Set
Actual Time 6:56 AM PDT 6:44 PM PDT
Civil Twilight 6:31 AM PDT 7:10 PM PDT
Nautical Twilight 6:01 AM PDT 7:39 PM PDT
Astronomical Twilight 5:31 AM PDT 8:09 PM PDT
Moon 2:31 PM PDT (3/11) 3:46 AM PDT (3/11)
Length of Visible Light 12h 38m
Length of Day
11h 47m
Waxing Gibbous, 79% of the Moon is Illuminated
Mar 11
Waxing Gibbous
Mar 16
Full
Mar 23
Last Quarter
Mar 30
New
Apr 7
First Quarter

Hourly Weather History & Observations

Time (PDT) Temp. Dew Point Humidity Pressure Visibility Wind Dir Wind Speed Gust Speed Precip Events Conditions
12:56 AM 66.0 °F 1.9 °F 8% 29.89 in 9.0 mi NW 24.2 mph 35.7 mph N/A   Mostly Cloudy
1:56 AM 64.0 °F 5.0 °F 10% 29.91 in 9.0 mi NNW 19.6 mph 34.5 mph N/A   Mostly Cloudy
2:56 AM 61.0 °F 14.0 °F 16% 29.96 in 8.0 mi North 23.0 mph 32.2 mph N/A   Mostly Cloudy
3:56 AM 57.9 °F 16.0 °F 19% 29.99 in 10.0 mi NE 8.1 mph - N/A   Mostly Cloudy
4:56 AM 55.9 °F 16.0 °F 21% 30.01 in 10.0 mi NE 11.5 mph - N/A   Scattered Clouds
5:56 AM 54.0 °F 17.1 °F 23% 30.04 in 10.0 mi NE 8.1 mph - N/A   Scattered Clouds
6:56 AM 54.0 °F 16.0 °F 22% 30.07 in 10.0 mi NNE 9.2 mph - N/A   Mostly Cloudy
7:56 AM 55.0 °F 18.0 °F 23% 30.09 in 10.0 mi NE 13.8 mph 18.4 mph N/A   Scattered Clouds
8:56 AM 57.0 °F 17.1 °F 21% 30.11 in 10.0 mi NNE 16.1 mph 23.0 mph N/A   Scattered Clouds
9:56 AM 59.0 °F 15.1 °F 18% 30.11 in 10.0 mi ENE 15.0 mph 21.9 mph N/A   Scattered Clouds
10:30 AM 60.8 °F 15.8 °F 17% 30.14 in 10.0 mi NNW 18.4 mph 27.6 mph N/A   Scattered Clouds
10:56 AM 60.1 °F 14.0 °F 16% 30.10 in 10.0 mi NNW 13.8 mph 26.5 mph N/A   Scattered Clouds
11:56 AM 61.0 °F 12.9 °F 15% 30.08 in 10.0 mi North 9.2 mph 25.3 mph N/A   Scattered Clouds
12:56 PM 64.0 °F 10.0 °F 12% 30.05 in 10.0 mi North 15.0 mph 25.3 mph N/A   Scattered Clouds
1:56 PM 64.9 °F 8.1 °F 11% 30.03 in 10.0 mi North 11.5 mph - N/A   Scattered Clouds
2:56 PM 64.9 °F 6.1 °F 10% 30.01 in 10.0 mi North 8.1 mph 25.3 mph N/A   Scattered Clouds
3:56 PM 66.9 °F 5.0 °F 9% 30.00 in 10.0 mi NNW 10.4 mph 16.1 mph N/A   Scattered Clouds
4:56 PM 66.0 °F 3.0 °F 8% 30.00 in 10.0 mi NNW 11.5 mph 19.6 mph N/A   Scattered Clouds
5:56 PM 64.9 °F 3.0 °F 9% 30.01 in 10.0 mi NW 13.8 mph 19.6 mph N/A   Scattered Clouds
6:35 PM 64.4 °F 3.2 °F 9% 30.04 in 10.0 mi NW 8.1 mph 19.6 mph N/A   Scattered Clouds
6:56 PM 63.0 °F 3.9 °F 10% 30.02 in 10.0 mi NW 6.9 mph - N/A   Scattered Clouds
7:28 PM 60.8 °F 12.2 °F 15% 30.06 in 10.0 mi NE 15.0 mph 21.9 mph N/A   Scattered Clouds
7:56 PM 60.1 °F 12.9 °F 16% 30.06 in 10.0 mi NE 11.5 mph - N/A   Partly Cloudy
8:56 PM 57.9 °F 12.9 °F 17% 30.07 in 10.0 mi NE 10.4 mph 18.4 mph N/A   Scattered Clouds
9:56 PM 57.0 °F 12.9 °F 18% 30.09 in 10.0 mi NNE 11.5 mph - N/A   Partly Cloudy
10:56 PM 57.0 °F 14.0 °F 18% 30.10 in 10.0 mi Variable 6.9 mph - N/A   Partly Cloudy
11:56 PM 55.9 °F 14.0 °F 19% 30.11 in 10.0 mi North 9.2 mph - N/A   Partly Cloudy